Tracking 25193 objects as of 17-Jan-2022
HD Live streaming from Space Station
objects crossing your sky now

ATLAS CENTAUR 2 DEB

Track ATLAS CENTAUR 2 DEB now!
10-day predictions


NORAD ID: 739
Int'l Code: 1963-047H
Perigee: 487.8 km
Apogee: 1,436.3 km
Inclination: 30.4 °
Period: 104.2 minutes
Semi major axis: 7333 km
RCS: 0.2965 m2 (medium)
Launch date: November 27, 1963
Source: United States (US)
Launch site: AIR FORCE EASTERN TEST RANGE (AFETR)

Note: This is SATELLITE DEBRIS
aabbcc
Your satellite tracking list
Your tracking list is empty




NASA's NSSDC Master Catalog

Two Line Element Set (TLE):
1 00739U 63047H   22016.82458239  .00000251  00000-0  26559-4 0  9990
2 00739  30.4247  63.1276 0646727 160.0341 202.6823 13.82526629917951
Source of the keplerian elements: AFSPC